Regional Weather Roundup
Issued by NWS Northern Indiana

Home | Current Version | Previous Version | Graphics & Text | Print | Product List | Glossary On
Versions: 1 2 3 4 5 6 7 8 9 10 11 12 13 14 15 16 17 18 19 20 21 22 23 24 25 26 27 28 29 30 31 32 33 34 35 36 37 38 39 40 41 42 43 44 45 46 47 48 49 50
000
ASUS43 KIWX 102100
RWRIWX

KIWX WEATHER ROUNDUP
NATIONAL WEATHER SERVICE NORTHERN INDIANA
400 PM EST SUN DEC 10 2017

NOTE: "FAIR" INDICATES FEW OR NO CLOUDS BELOW 12,000 FEET WITH NO
SIGNIFICANT WEATHER AND/OR OBSTRUCTIONS TO VISIBILITY.

* THESE STATIONS ARE NOT UNDER NWS QUALITY CONTROL. THEY ALSO MAY NOT
  REPORT WEATHER SUCH AS PRECIPITATION OR FOG.

INZ001>027-102200-
NORTHERN INDIANA

CITY           SKY/WX    TMP DP  RH WIND       PRES   REMARKS
GARY*          CLOUDY    36  21  55 W14       29.92R
LAPORTE*       PTSUNNY   32  23  68 NW12G17   29.91R WCI  23
KNOX*          MOSUNNY   36  25  64 W13       29.89R
SOUTH BEND     CLOUDY    30  23  75 W7        29.91R WCI  23
ELKHART*       CLOUDY    30  21  69 W7        29.90R WCI  23
GOSHEN         CLOUDY    30  21  69 SW5       29.89R WCI  25
MONTICELLO*    SUNNY     38  20  48 W14G23    29.90R
ROCHESTER*     MOSUNNY   37  25  60 W10       29.90R
WARSAW*        CLOUDY    32  21  64 SW5       29.89R WCI  27
AUBURN*        CLOUDY    32  19  59 SW6       29.91R WCI  26
FORT WAYNE     CLOUDY    32  23  69 SW13      29.91S WCI  22
PERU/GRISSOM   MOSUNNY   36  23  59 W17       29.89S

$$
INZ028>050-102200-
CENTRAL INDIANA

CITY           SKY/WX    TMP DP  RH WIND       PRES   REMARKS
LAFAYETTE      SUNNY     39  22  50 SW15G23   29.91R
KOKOMO*        MOSUNNY   36  22  56 W21       29.91S
MUNCIE*        SUNNY     35  19  52 SW10G22   29.92R WCI  27
INDIANAPOLIS   MOSUNNY   38  21  50 SW24      29.95R

$$
MIZ043>046-050>051-056>058-064>065-071>073-077>080-102200-
SOUTHWEST LOWER MICHIGAN

CITY           SKY/WX    TMP DP  RH WIND       PRES   REMARKS
BATTLE CREEK   CLOUDY    28  20  71 SW13      29.87R WCI  17
BENTON HARBOR  CLOUDY    32  22  66 W12G21    29.90R WCI  23
COLDWATER*     CLOUDY    28  20  72 SW9       29.89R WCI  19
HILLSDALE*     CLOUDY    28  19  69 SW7       29.87R WCI  21
HOLLAND        CLOUDY    31  24  75 NW7       29.88R WCI  24
GRAND RAPIDS   FLURRIES  27  23  85 SW10      29.86R WCI  17
KALAMAZOO      CLOUDY    28  20  71 SW8       29.89R WCI  20
STURGIS*       CLOUDY    27  20  75 SW9       29.88R WCI  18
THREE RIVERS*  CLOUDY    29  21  71 SW5       29.90R WCI  24

$$
OHZ001>008-015>018-024>025-102200-
NORTHWEST OHIO

CITY           SKY/WX    TMP DP  RH WIND       PRES   REMARKS
DEFIANCE       CLOUDY    30  19  63 SW9       29.92R WCI  22
FINDLAY        CLOUDY    32  17  54 SW15      29.91R WCI  22
TOLEDO EXPRESS CLOUDY    29  20  69 SW10      29.90S WCI  20
TOLEDO METCALF CLOUDY    29  19  66 SW16      29.91F WCI  17
LIMA           MOCLDY    31  21  66 SW16      29.92R WCI  20

$$
AND FOR LAKE MICHIGAN COASTAL AND OPEN LAKE BUOY OBSERVATIONS

STATION/POSITION TEMP    WIND        PRES    VSBY  WAVE
                 AIR SEA DIR/SP/G                  HT/PER
                 (F)     (DEG/KT/KT) (MB)    (MI)  (FT/S)
CALUMET HARBOR    34     290/  8/ 11 1012.4R
MICHIGAN CITY     33     280/ 18/ 20   N/A
BURNS HARBOR      33     310/ 11/ 16 1013.5R
SAINT JOSEPH      33     290/ 14/ 19 1012.5

$$
&&




USA.gov is the U.S. government's official web portal to all federal, state and local government web resources and services.